Location: Eurasberg
(48.3353°N, 11.0839°E)
Time: 13:25:53
(UTC+00:00)

Timation 1 Rocket - Pass Details

Date: 21 April 2026
Orbit: 895 x 908 km, 70.0° (Epoch: 14 May)

Event Time Altitude Azimuth Distance (km) Brightness Sun altitude
Exits shadow 23:40:11 77° 76° (ENE) 935 4.3 -29.3°
Drops below altitude 10° 23:45:54 10° 31° (NNE) 2,603 7.5 -29.1°
Sets 23:48:25 0° 31° (NNE) 3,548 8.5 -29.1°
